Weather History for KMTH - January, 2015

Change the Weather History Date:

Saturday, January 17, 2015

  Actual Average Record
Temperature  
Mean Temperature 70 °F 69 °F  
Max Temperature 77 °F 75 °F 83 °F (2008)
Min Temperature 63 °F 64 °F 52 °F (2014)
Degree Days  
Heating Degree Days 0 1  
Month to date heating degree days 0 26  
Since 1 July heating degree days 21 47  
Cooling Degree Days 5 6  
Month to date cooling degree days 165 102  
Year to date cooling degree days 165 102  
Growing Degree Days 20 (Base 50)    
Moisture  
Dew Point 60 °F    
Average Humidity 71    
Maximum Humidity 81    
Minimum Humidity 60    
Precipitation  
Precipitation 0.00 in 0.03 in 1.35 in (2011)
Month to date precipitation 0.18 0.87  
Year to date precipitation 0.18 0.87  
Snow  
Snow 0.00 in - - ()
Month to date snowfall 0.0  
Since 1 July snowfall 0.0  
Snow Depth 0.00 in    
Sea Level Pressure  
Sea Level Pressure 30.10 in    
Wind  
Wind Speed 11 mph (NE)    
Max Wind Speed 16 mph    
Max Gust Speed 22 mph    
Visibility 10 miles    
Events      
T = Trace of Precipitation, MM = Missing Value Source: NWS Daily Summary

Daily Weather History Graph

Daily Weather History Graph

Search for Another Location

Airport or City:

Trip Planner

Search our weather history database for the weather conditions in past years. The results will help you decide how hot, cold, wet, or windy it might be!

Date:

Astronomy

Jan. 17, 2015 Rise Set
Actual Time 7:10 AM EST 5:58 PM EST
Civil Twilight 6:45 AM EST 6:22 PM EST
Nautical Twilight 6:18 AM EST 6:50 PM EST
Astronomical Twilight 5:50 AM EST 7:18 PM EST
Moon 4:07 AM EST (1/17) 3:21 PM EST (1/17)
Length of Visible Light 11h 36m
Length of Day
10h 47m
Waning Crescent, 11% of the Moon is Illuminated
Jan 17
Waning Crescent
Jan 20
New
Jan 26
First Quarter
Feb 3
Full
Feb 11
Last Quarter

Hourly Weather History & Observations

Time (EST) Temp. Dew Point Humidity Pressure Visibility Wind Dir Wind Speed Gust Speed Precip Events Conditions
12:53 AM 66.0 °F 59.0 °F 78% 30.09 in 10.0 mi NNE 10.4 mph - N/A   Clear
1:53 AM 64.9 °F 57.9 °F 78% 30.09 in 10.0 mi NNE 10.4 mph - N/A   Clear
2:53 AM 64.9 °F 57.0 °F 75% 30.09 in 10.0 mi NNE 11.5 mph - N/A   Partly Cloudy
3:53 AM 64.9 °F 57.0 °F 75% 30.10 in 10.0 mi NNE 12.7 mph - N/A   Clear
4:53 AM 64.0 °F 57.0 °F 78% 30.09 in 10.0 mi NNE 11.5 mph - N/A   Clear
5:53 AM 64.0 °F 57.0 °F 78% 30.10 in 10.0 mi NNE 10.4 mph - N/A   Clear
6:53 AM 64.0 °F 55.0 °F 73% 30.12 in 10.0 mi NNE 12.7 mph - N/A   Clear
7:53 AM 64.0 °F 57.0 °F 78% 30.13 in 10.0 mi NNE 12.7 mph - N/A   Mostly Cloudy
8:53 AM 64.0 °F 57.9 °F 80% 30.15 in 10.0 mi NNE 11.5 mph - N/A   Partly Cloudy
9:53 AM 66.9 °F 60.1 °F 79% 30.16 in 10.0 mi NNE 11.5 mph - N/A   Scattered Clouds
10:53 AM 68.0 °F 61.0 °F 78% 30.17 in 10.0 mi NE 11.5 mph - N/A   Mostly Cloudy
11:53 AM 70.0 °F 62.1 °F 76% 30.14 in 10.0 mi NE 11.5 mph - N/A   Mostly Cloudy
12:53 PM 73.0 °F 64.0 °F 73% 30.11 in 10.0 mi NE 11.5 mph - N/A   Overcast
1:53 PM 73.9 °F 64.9 °F 73% 30.08 in 10.0 mi ENE 12.7 mph - N/A   Overcast
2:53 PM 75.0 °F 61.0 °F 62% 30.07 in 10.0 mi East 11.5 mph - N/A   Overcast
3:53 PM 73.9 °F 62.1 °F 66% 30.07 in 10.0 mi ENE 11.5 mph - N/A   Overcast
4:53 PM 73.9 °F 62.1 °F 66% 30.07 in 10.0 mi East 10.4 mph - N/A   Mostly Cloudy
5:53 PM 73.0 °F 62.1 °F 68% 30.08 in 10.0 mi ENE 9.2 mph - N/A   Mostly Cloudy
6:53 PM 72.0 °F 61.0 °F 68% 30.09 in 10.0 mi East 9.2 mph - N/A   Scattered Clouds
7:53 PM 72.0 °F 62.1 °F 71% 30.09 in 10.0 mi East 10.4 mph - N/A   Clear
8:53 PM 72.0 °F 61.0 °F 68% 30.10 in 10.0 mi East 9.2 mph - N/A   Clear
9:53 PM 72.0 °F 60.1 °F 66% 30.11 in 10.0 mi East 8.1 mph - N/A   Partly Cloudy
10:53 PM 72.0 °F 60.1 °F 66% 30.11 in 10.0 mi East 6.9 mph - N/A   Clear
11:53 PM 73.0 °F 63.0 °F 71% 30.10 in 10.0 mi East 3.5 mph - N/A   Overcast